Regional Weather Roundup
Issued by NWS

Home | Current Version | Previous Version | Graphics & Text | Print | Product List | Glossary Off
Versions: 1 2 3 4 5 6 7 8 9 10 11 12 13 14 15 16 17 18 19 20 21 22 23 24 25 26 27 28 29 30 31 32 33 34 35 36 37 38 39 40 41 42 43 44 45 46 47 48 49 50

000
ASUS43 KMKX 091100
RWRWI

WISCONSIN REGIONAL WEATHER ROUNDUP
NATIONAL WEATHER SERVICE MILWAUKEE/SULLIVAN WI
500 AM CST TUE FEB 09 2016

NOTE: "FAIR" INDICATES FEW OR NO CLOUDS BELOW 12,000 FEET WITH NO
SIGNIFICANT WEATHER AND/OR OBSTRUCTIONS TO VISIBILITY.

WIZ001-002-006>008-014>016-023>028-091200-
NORTHWEST WISCONSIN

CITY           SKY/WX    TMP DP  RH WIND       PRES   REMARKS
SUPERIOR ARPT  CLOUDY     5  -3  69 N10G20    30.05R WCI -10
ASHLAND        CLOUDY     9   5  84 N12       29.96R FOG     WCI  -6
HAYWARD        CLOUDY     3  -3  76 VRB7      29.94R WCI  -9
SIREN          CLOUDY     3  -4  72 N8        30.02R WCI -10
CUMBERLAND     CLOUDY     3  -4  72 NW17      29.95R WCI -17
RICE LAKE      FLURRIES   5  -1  74 NW10G16   29.97R WCI -10
CHETEK         PTCLDY     3  -3  77 NW7       29.96R WCI  -9
LADYSMITH      CLOUDY     6   1  77 NW15G23   29.90R WCI -11
EAU CLAIRE     NOT AVBL
MENOMONIE      CLEAR      6  -2  69 NW12G17   29.98R WCI  -9
NEW RICHMOND   CLOUDY     5  -3  71 N15       30.01R WCI -13
OSCEOLA        CLEAR      6  -2  71 NW13      30.06R WCI -11
$$

WIZ003>005-009-010-017-018-091200-
NORTH CENTRAL WISCONSIN

CITY           SKY/WX    TMP DP  RH WIND       PRES   REMARKS
MANITOWISH WTR LGT SNOW  10   6  86 N8        29.77R WCI  -2
ARBOR VITAE    LGT SNOW  11   7  81 N10       29.76R WCI  -2
WOODRUFF       LGT SNOW  11   7  81 N10       29.76R WCI  -2
RHINELANDER    FLURRIES  10   4  76 NW6       29.75R WCI   0
EAGLE RIVER    LGT SNOW  10   4  75 N13       29.74R WCI  -5
LAND O LAKES   LGT SNOW  10   6  82 N12       29.75R WCI  -4
PHILLIPS       CLOUDY     7   2  81 NW9G17    29.81R WCI  -7
TOMAHAWK       LGT SNOW   9   5  84 NW7       29.78R WCI  -3
MEDFORD        LGT SNOW   6   1  81 NW10G16   29.80R WCI  -9
MERRILL        LGT SNOW   9   5  81 NW7       29.79R WCI  -2
$$

WIZ029-030-035-036-043>047-091200-
CENTRAL WISCONSIN

CITY           SKY/WX    TMP DP  RH WIND       PRES   REMARKS
WAUSAU         LGT SNOW  10   5  80 NW10      29.79R WCI  -4
MOSINEE        NOT AVBL
MARSHFIELD     CLOUDY     7  -1  70 NW18      29.82R WCI -12
STEVENS POINT  LGT SNOW   7   1  79 W7        29.81S WCI  -5
WAUPACA        FLURRIES  12   5  72 NW9       29.81R WCI   0
WAUTOMA        NOT AVBL
WISC RAPIDS    PTCLDY     8  -1  66 NW14G22   29.85R WCI  -8
CAMP DOUGLAS   NOT AVBL
$$

WIZ011>013-019>022-031-037>040-048>050-091200-
NORTHEAST WISCONSIN

CITY           SKY/WX    TMP DP  RH WIND       PRES   REMARKS
ANTIGO         LGT SNOW   8   4  86 NW10      29.74R WCI  -7
SHAWANO        FLURRIES  15   9  75 NW5       29.79R WCI   8
OCONTO         CLOUDY    15   8  72 NW7       29.77R WCI   5
STURGEON BAY   CLOUDY    16   5  62 NW15G23   29.75S WCI   1
GREEN BAY      MOCLDY    12   8  84 NW8       29.78R WCI   0
MANITOWOC      NOT AVBL
APPLETON       NOT AVBL
CLINTONVILLE   FLURRIES  14   7  73 NW10      29.78R WCI   1
OSHKOSH        FLURRIES  11   4  73 NW13      29.78R WCI  -4
$$

WIZ032>034-041-042-053>061-091200-
SOUTHWEST WISCONSIN

CITY           SKY/WX    TMP DP  RH WIND       PRES   REMARKS
LA CROSSE      CLOUDY     9   0  67 NW15      29.96R WCI  -8
SPARTA         FLURRIES   8   1  75 NW8       29.92R WCI  -5
VIROQUA        PTCLDY     6   1  77 NW14      29.86R WCI -10
BOSCOBEL       CLOUDY    11   1  64 N14G21    29.92R WCI  -5
PRAIRIE DU CHI PTCLDY    12   1  63 NW13      29.93R WCI  -3
PLATTEVILLE    CLEAR     10   5  77 NW14      29.84R WCI  -5
$$

WIZ056-057-062-063-064-067-068-091200-
SOUTH CENTRAL WISCONSIN

CITY           SKY/WX    TMP DP  RH WIND       PRES   REMARKS
REEDSBURG      PTCLDY     8   2  75 NW10G18   29.84S WCI  -6
BARABOO/DELLS  CLEAR      8   2  75 NW12G18   29.82S WCI  -7
LONE ROCK      NOT AVBL
MINERAL POINT  FLURRIES  12   5  73 NW15G22   29.82R WCI  -4
MADISON        CLOUDY    11   4  73 N14       29.81R WCI  -5
MIDDLETON      CLOUDY    13   6  74 N15       29.82R WCI  -3
WATERTOWN      FLURRIES  12   8  82 NW14      29.78R WCI  -3
MONROE         MOCLDY    12   9  85 N14G23    29.79R WCI  -3
JANESVILLE     FLURRIES  16  10  79 NW15G21   29.79R WCI   1
$$

WIZ051-052-058>065-066-070>072-091200-
SOUTHEAST WISCONSIN

CITY           SKY/WX    TMP DP  RH WIND       PRES   REMARKS
MILWAUKEE      LGT SNOW  16  10  77 NW13      29.75R WCI   2
WAUKESHA       LGT SNOW  12   9  85 NW13G20   29.76R WCI  -3
MILWAUKEE/TIMM LGT SNOW  16  10  79 NW14      29.76S WCI   1
RACINE         FLURRIES  17  10  74 NW12      29.76R WCI   4
BURLINGTON     LGT SNOW  14  10  84 NW10      29.76R WCI   1
KENOSHA        LGT SNOW  17  11  77 NW13G22   29.75R WCI   4
FOND DU LAC    PTCLDY    11   5  77 NW14      29.78R WCI  -5
SHEBOYGAN      CLOUDY    14   8  77 NW12      29.75R WCI   0
WEST BEND      LGT SNOW  14   9  79 NW14      29.75S WCI  -1
JUNEAU         LGT SNOW  11   6  81 NW13G18   29.78R WCI  -4
$$

LSZ147-162-091200-
LAKE SUPERIOR

STATION/POSITION TIME  TEMP    WIND        PRES    WAVE
                       AIR SEA DIR/SP/G            HT/PER
                 (UTC) (F)     (DEG/KT/KT) (MB)    (FT/S)
DEVILS ISLAND    1000   11     360/ 26/ 30 1015.7R
PORT WING        1000   11     340/ 20/ 25 1015.9
SAXON HARBOR     1020   15                 1012.5R
$$

LMZ867-665-643>646-091200-
LAKE MICHIGAN

STATION/POSITION TIME  TEMP    WIND        PRES    WAVE
                       AIR SEA DIR/SP/G            HT/PER
                 (UTC) (F)     (DEG/KT/KT) (MB)    (FT/S)
CHAMBERS ISLAND  1000   15     300/ 15/ 24 1007.1
ALGOMA LAKESHORE 1011          330/ 14/ 19   N/A
KEWAUNEE LAKESHO 1000   16     320/  7/ 12 1006.4S
SHEBOYGAN LAKESH 1000   16     310/ 12/ 14 1008.5R
PORT WASHINGTON  1000   17     310/  6/ 13 1008.5
MILWAUKEE LAKESH 1010   18     330/ 13/ 17   N/A
KENOSHA   LAKESH 1000   18     310/ 14/ 19 1006.8R
$$

TC  - TEMPERATURE IN CELSIUS
VSB - VISIBILITY IN STATUTE MILES
WCI - WIND CHILL INDEX
HX  - HEAT INDEX




USA.gov is the U.S. government's official web portal to all federal, state and local government web resources and services.